Concordia, KS

1:39 AM CST on November 20, 2019 (GMT -0600)
Blosser Municipal

Weather History for KCNK - September, 2019

Change the Weather History Date:

Tuesday, September 17, 2019

  Actual Average Record
Temperature  
Mean Temperature 84 °F 68 °F  
Max Temperature 94 °F 80 °F 102 °F (1953)
Min Temperature 74 °F 55 °F 37 °F (1981)
Degree Days  
Heating Degree Days 0 2  
Month to date heating degree days 0 20  
Since 1 July heating degree days 0 23  
Cooling Degree Days 19 5  
Month to date cooling degree days 233 119  
Year to date cooling degree days 1510 1285  
Growing Degree Days 33 (Base 50)    
Moisture  
Dew Point 66 °F    
Average Humidity 59    
Maximum Humidity 79    
Minimum Humidity 39    
Precipitation  
Precipitation 0.00 in 0.10 in 2.18 in (1978)
Month to date precipitation 0.02 1.66  
Year to date precipitation 28.86 22.76  
Snow  
Snow 0.00 in 0.00 in 0.00 in ()
Month to date snowfall 0.0 0.0  
Year to date snowfall 32.3 13.7  
Since 1 July snowfall 0.0 0.0  
Snow Depth 0.00 in    
Sea Level Pressure  
Sea Level Pressure 29.88 in    
Wind  
Wind Speed 17 mph (South)    
Max Wind Speed 26 mph    
Max Gust Speed 39 mph    
Visibility 10 miles    
Events      
T = Trace of Precipitation, MM = Missing Value Source: NWS Daily Summary

Daily Weather History Graph

Daily Weather History Graph

Search for Another Location

Airport or City:

Astronomy

Sep. 17, 2019 Rise Set
Actual Time 7:13 AM CDT 7:36 PM CDT
Civil Twilight 6:46 AM CDT 8:03 PM CDT
Nautical Twilight 6:14 AM CDT 8:34 PM CDT
Astronomical Twilight 5:42 AM CDT 9:06 PM CDT
Moon 9:40 PM CDT (9/17) 10:18 AM CDT (9/17)
Length of Visible Light 13h 16m
Length of Day
12h 22m
Waning Gibbous, 89% of the Moon is Illuminated
Sep 17
Waning Gibbous
Sep 21
Last Quarter
Sep 28
New
Oct 5
First Quarter
Oct 13
Full

Hourly Weather History & Observations

Time (CDT) Temp. Heat Index Dew Point Humidity Pressure Visibility Wind Dir Wind Speed Gust Speed Precip Events Conditions
12:55 AM 77.0 °F - 68.0 °F 74% 29.91 in 10.0 mi South 12.7 mph 23.0 mph N/A   Clear
1:55 AM 77.0 °F - 68.0 °F 74% 29.92 in 10.0 mi South 15.0 mph - N/A   Clear
2:55 AM 75.9 °F - 68.0 °F 76% 29.92 in 10.0 mi South 13.8 mph - N/A   Clear
3:55 AM 75.0 °F - 68.0 °F 79% 29.91 in 10.0 mi South 11.5 mph - N/A   Clear
5:55 AM 75.0 °F - 66.9 °F 76% 29.91 in 10.0 mi South 16.1 mph 24.2 mph N/A   Clear
6:55 AM 75.0 °F - 66.9 °F 76% 29.92 in 10.0 mi South 13.8 mph 28.8 mph N/A   Clear
7:55 AM 75.0 °F - 66.9 °F 76% 29.93 in 10.0 mi South 13.8 mph - N/A   Clear
8:55 AM 78.1 °F - 66.9 °F 68% 29.93 in 10.0 mi South 13.8 mph - N/A   Clear
9:55 AM 82.0 °F 84.5 °F 66.9 °F 60% 29.92 in 10.0 mi South 19.6 mph 25.3 mph N/A   Clear
10:55 AM 86.0 °F 88.8 °F 66.9 °F 53% 29.92 in 10.0 mi South 18.4 mph 31.1 mph N/A   Clear
11:55 AM 90.0 °F 92.8 °F 66.9 °F 46% 29.90 in 10.0 mi South 17.3 mph 31.1 mph N/A   Clear
12:55 PM 91.9 °F 94.5 °F 66.0 °F 42% 29.89 in 10.0 mi South 20.7 mph 33.4 mph N/A   Clear
1:55 PM 91.9 °F 94.1 °F 64.9 °F 41% 29.87 in 10.0 mi South 25.3 mph 35.7 mph N/A   Clear
2:55 PM 93.0 °F 95.0 °F 64.9 °F 39% 29.86 in 10.0 mi South 23.0 mph 34.5 mph N/A   Clear
3:55 PM 91.9 °F 94.5 °F 66.0 °F 42% 29.84 in 10.0 mi South 20.7 mph 32.2 mph N/A   Clear
4:55 PM 91.9 °F 93.3 °F 64.0 °F 39% 29.81 in 10.0 mi South 23.0 mph 35.7 mph N/A   Partly Cloudy
5:55 PM 90.0 °F 90.6 °F 63.0 °F 40% 29.81 in 10.0 mi South 23.0 mph 34.5 mph N/A   Clear
6:55 PM 88.0 °F 89.3 °F 64.0 °F 45% 29.81 in 10.0 mi South 17.3 mph 25.3 mph N/A   Clear
7:55 PM 84.0 °F 85.4 °F 64.0 °F 51% 29.82 in 10.0 mi SSE 11.5 mph - N/A   Clear
8:55 PM 82.0 °F 83.8 °F 64.9 °F 56% 29.83 in 10.0 mi SSE 13.8 mph - N/A   Clear
9:55 PM 81.0 °F 83.0 °F 66.0 °F 60% 29.84 in 10.0 mi South 17.3 mph - N/A   Clear
10:55 PM 80.1 °F 82.1 °F 66.0 °F 62% 29.84 in 10.0 mi South 16.1 mph - N/A   Clear
11:55 PM 79.0 °F - 66.9 °F 66% 29.83 in 10.0 mi South 16.1 mph - N/A   Clear